Hourly Data Report for July 06, 2021

WIARTON A
ONTARIO
Current Station Operator: NAVCAN

44°44'39.000" N
81°06'31.000" W
221.90 m
6119499
71633
YVV

Download Data

Hourly Data (July 2021)
Hourly Data Report for July 6, 2021
TIME
LST
Temp Definition
°C
Dew Point Definition
°C
Rel Hum Definition
%
Precip. Amount Definition
mm

Wind Dir Definition
10's deg

Wind Spd Definition
km/h
Visibility Definition
km
Stn Press Definition
kPa
Hmdx Definition


Wind Chill Definition


Weather Definition


00:00 19.3 17.7 90   23 11 24.1 98.46     LegendNANA
01:00 19.3 17.9 91   23 9 24.1 98.46     Mostly Cloudy
02:00 19.1 17.9 93   21 10 24.1 98.45     LegendNANA
03:00 18.8 17.9 95   21 8 24.1 98.49     LegendNANA
04:00 19.3 18.3 94   24 6 24.1 98.54     Cloudy
05:00 19.8 19.2 97   25 12 24.1 98.59     LegendNANA
06:00 19.7 19.4 98   24 9 3.2 98.65     Fog
07:00 19.6 19.6 100   25 10 1.2 98.69     Fog
08:00 20.1 19.9 99   26 12 4.8 98.74 28   Fog
09:00 21.2 19.7 92   26 12 6.4 98.72 29   Fog
10:00 22.1 19.9 87   24 10 8.1 98.77 30   Fog
11:00 22.2 19.6 85   26 14 9.7 98.79 29   Fog
12:00 22.5 19.7 84   25 17 12.9 98.80 30   LegendNANA
13:00 23.1 19.4 79   27 16 12.9 98.80 30   Cloudy
14:00 24.2 19.8 76   27 13 16.1 98.81 32   LegendNANA
15:00 23.2 19.1 77   27 14 16.1 98.81 30   LegendNANA
16:00 24.1 18.6 71   27 12 19.3 98.83 31   Cloudy
17:00 23.8 18.7 72   26 10 16.1 98.82 30   LegendNANA
18:00 23.4 18.3 73   26 5 9.7 98.80 30   Haze
19:00 22.0 17.9 77   25 7 9.7 98.81 28   Haze
20:00 20.8 18.1 84   25 5 9.7 98.79 27   Haze
21:00 20.5 17.6 84   21 6 16.1 98.86 26   LegendNANA
22:00 19.9 17.6 87   36 1 16.1 98.85     Cloudy
23:00 19.2 17.6 90   34 5 12.9 98.87     LegendNANA

Notes on Data Quality.

Legend

  • E = Estimated
  • M = Missing
  • NA = Not Available*
  • [empty] = Indicates an unobserved value
Date modified: